Regional Weather Roundup
Issued by NWS

Home | Current Version | Previous Version | Graphics & Text | Print | Product List | Glossary Off
Versions: 1 2 3 4 5 6 7 8 9 10 11 12 13 14 15 16 17 18 19 20 21 22 23 24 25 26 27 28 29 30 31 32 33 34 35 36 37 38 39 40 41 42 43 44 45 46 47 48 49 50

000
ASUS43 KTOP 052208
RWRKS

WEATHER ROUNDUP FOR KANSAS
NATIONAL WEATHER SERVICE GOODLAND KS
500 PM CDT THU MAY 05 2016

NOTE:  "FAIR" INDICATES FEW OR NO CLOUDS BELOW 12,000 FEET WITH NO
SIGNIFICANT WEATHER AND/OR OBSTRUCTIONS TO VISIBILITY.

KSZ001>006-013>018-027>032-041>047-052300-
NORTHWEST KANSAS

CITY           SKY/WX    TMP DP  RH WIND       PRES   REMARKS
GOODLAND       MOSUNNY   78  41  26 SE14      30.03F
HAYS           SUNNY     79  48  34 SE13      30.03F
HILL CITY      SUNNY     81  46  29 S13       30.03F
RUSSELL        SUNNY     78  45  30 S6        30.03F
$$

KSZ061>065-074>080-084>089-052300-
SOUTHWEST KANSAS

CITY           SKY/WX    TMP DP  RH WIND       PRES   REMARKS
DODGE CITY     SUNNY     78  48  34 SE16      30.04F
ELKHART          N/A    N/A N/A N/A MISG        N/A
GARDEN CITY    SUNNY     81  44  27 SE12G22   30.02F
GREAT BEND     SUNNY     79  45  29 S8        30.04S
LIBERAL        SUNNY     82  46  28 SE13      30.02F
PRATT          CLOUDY    76  38  25 SE5       30.05F
$$

KSZ066>073-081>083-090>101-052300-
SOUTHEAST KANSAS

CITY           SKY/WX    TMP DP  RH WIND       PRES   REMARKS
CHANUTE        SUNNY     77  42  28 VRB5      30.03F
COFFEYVILLE    SUNNY     77  44  30 N7        30.03F
HUTCHINSON     SUNNY     80  39  23 SW3       30.04F
MEDICINE LODGE   N/A     80  44  27 SE8       30.03F
NEWTON         SUNNY     79  39  24 S3        30.07F
PARSONS        SUNNY     77  42  28 VRB3      30.04F
WICHITA INTL   MOSUNNY   81  38  21 N3        30.03F
WICHITA JABRA  SUNNY     80  41  24 N5        30.03F
WICHITA MCCONL SUNNY     80  43  26 NE5       30.03F
WINFIELD       SUNNY     79  42  26 VRB5      30.38R
$$

KSZ007>012-019>026-033>040-048>060-102>105-052300-
NORTHEAST KANSAS

CITY           SKY/WX    TMP DP  RH WIND       PRES   REMARKS
CONCORDIA      SUNNY     79  36  21 CALM      30.03F
EMPORIA        SUNNY     76  41  28 VRB6      30.03F
LAWRENCE       SUNNY     75  39  27 N7        30.04F
MANHATTAN      SUNNY     79  38  22 E5        30.02F
MARYSVILLE     SUNNY     77  45  31 SE3       30.02F
OLATHE IND     SUNNY     72  37  28 N7        30.05F
OLATHE EXE     SUNNY     71  35  26 VRB3      30.04F
SALINA         SUNNY     80  43  26 VRB3      30.04F
TOPEKA BILLARD SUNNY     75  43  31 VRB5      30.03F
TOPEKA FORBES  SUNNY     77  43  29 VRB5      30.03F
$$




USA.gov is the U.S. government's official web portal to all federal, state and local government web resources and services.